sat.trackr.live / text

‹ back to catalog

STARLINK-30902

NORAD 58421 · 2023-180V

PAYLOAD ACTIVE UNKNOWN

§ Identity

Operator
Country
US
Launch date
2023-11-22
Launch site
AFETR
Launch vehicle
Mass (kg)
RCS (m²)

Purposes: comms

External: N2YO · Heavens-Above · Gunter

§ Orbital elements

Epoch: 2026-09-20T15:40:50.368800Z

Period
94.27 min
Inclination
43.0026°
Eccentricity
0.0001356
Mean motion
15.27571645 rev/d
Perigee alt
482.1 km
Apogee alt
484.0 km
Semi-major
6,861.2 km
B*
2.5110e-5
RAAN
31.4510°
Arg perigee
276.1660°
Mean anomaly
83.9038°
Rev number
15,733

§ Raw data

STARLINK-309021 58421U 23180V   26263.65336075  .00000429  00000+0  25110-4 0  99952 58421  43.0026  31.4510 0001356 276.1660  83.9038 15.27571645157337

JSON: /api/v1/satellites/58421 · /tle

For live sub-satellite position, see the globe view (requires WebGL).

§ Visibility from observer

Set your observer location to see the next 7 days of passes ≥ 10°. The values pass through the URL so the page stays shareable.

No JS? Fill the form by hand. The geolocation button needs JavaScript.